Total_Precipitation_Accumulation
0.02 0.02 0.02 0.04 0.07 0.11 0.17 0.20 0.24 0.22 0.25 0.34 0.34 0.30 0.26 0.23 0.21 0.22 0.19 0.15 0.11 0.11 0.10 0.10 0.13 0.16 0.25 0.32 0.36 0.42 0.56 0.77 0.86 0.83 0.76 0.74 0.70 0.75 0.69 0.60 0.60 0.59 0.51 0.48
0.05 0.06 0.09 0.12 0.13 0.11 0.11 0.12 0.14 0.18 0.26 0.27 0.26 0.26 0.25 0.24 0.21 0.19 0.15 0.12 0.10 0.09 0.08 0.07 0.07 0.09 0.15 0.25 0.32 0.39 0.50 0.61 0.64 0.67 0.68 0.62 0.56 0.52 0.49 0.49 0.47 0.46 0.41 0.39
0.05 0.12 0.16 0.17 0.15 0.21 0.25 0.20 0.20 0.31 0.33 0.26 0.23 0.18 0.15 0.13 0.12 0.11 0.10 0.08 0.08 0.08 0.07 0.06 0.06 0.08 0.13 0.20 0.25 0.35 0.42 0.45 0.52 0.60 0.62 0.53 0.44 0.44 0.45 0.41 0.38 0.35 0.33 0.30
0.06 0.16 0.22 0.15 0.04 0.06 0.11 0.14 0.15 0.19 0.19 0.15 0.13 0.09 0.06 0.04 0.04 0.05 0.04 0.05 0.05 0.05 0.05 0.05 0.06 0.09 0.13 0.18 0.23 0.32 0.41 0.47 0.50 0.58 0.58 0.50 0.45 0.42 0.39 0.34 0.32 0.31 0.28 0.25
0.05 0.11 0.12 0.08 0.04 0.04 0.06 0.07 0.03 0.06 0.06 0.06 0.04 0.05 0.08 0.04 0.01 0.02 0.03 0.04 0.04 0.03 0.05 0.07 0.08 0.09 0.13 0.20 0.24 0.31 0.40 0.49 0.56 0.60 0.56 0.49 0.45 0.38 0.33 0.30 0.24 0.23 0.24 0.24
0.03 0.09 0.11 0.06 0.04 0.05 0.07 0.16 0.09 0.07 0.06 0.05 0.06 0.13 0.16 0.05 0.01 0.01 0.03 0.07 0.08 0.06 0.09 0.14 0.13 0.12 0.17 0.23 0.30 0.40 0.47 0.53 0.58 0.58 0.56 0.52 0.47 0.40 0.33 0.29 0.24 0.18 0.20 0.22
0.02 0.07 0.07 0.03 0.04 0.06 0.15 0.23 0.05 0.02 0.02 0.02 0.06 0.11 0.08 0.02 0.01 0.01 0.03 0.08 0.12 0.15 0.22 0.22 0.18 0.19 0.24 0.28 0.35 0.41 0.49 0.55 0.61 0.65 0.57 0.53 0.49 0.44 0.38 0.32 0.28 0.22 0.17 0.18
0.03 0.08 0.09 0.02 0.02 0.04 0.06 0.03 0.02 0.02 0.02 0.02 0.02 0.02 0.03 0.02 0.02 0.02 0.04 0.07 0.14 0.24 0.28 0.25 0.25 0.32 0.37 0.40 0.40 0.43 0.51 0.58 0.66 0.69 0.56 0.51 0.53 0.50 0.45 0.40 0.35 0.27 0.21 0.17
0.03 0.04 0.02 0.01 0.01 0.02 0.02 0.02 0.02 0.02 0.01 0.02 0.02 0.02 0.03 0.02 0.03 0.06 0.09 0.10 0.13 0.20 0.25 0.26 0.32 0.44 0.56 0.58 0.51 0.50 0.56 0.64 0.65 0.66 0.68 0.67 0.58 0.53 0.51 0.45 0.40 0.32 0.26 0.21
0.03 0.02 0.01 0.01 0.01 0.01 0.01 0.01 0.01 0.01 0.01 0.01 0.02 0.02 0.02 0.02 0.03 0.06 0.09 0.10 0.11 0.15 0.21 0.29 0.38 0.51 0.60 0.63 0.60 0.59 0.61 0.66 0.69 0.70 0.72 0.72 0.69 0.64 0.59 0.52 0.46 0.39 0.31 0.25
0.05 0.03 0.02 0.01 0.01 0.01 0.00 0.01 0.01 0.01 0.01 0.01 0.02 0.03 0.03 0.03 0.04 0.05 0.06 0.07 0.09 0.14 0.22 0.29 0.37 0.46 0.53 0.55 0.61 0.66 0.68 0.72 0.75 0.75 0.75 0.75 0.71 0.67 0.64 0.58 0.48 0.44 0.35 0.26
0.04 0.03 0.03 0.03 0.01 0.00 0.00 0.01 0.01 0.01 0.01 0.01 0.02 0.03 0.04 0.04 0.04 0.04 0.05 0.06 0.08 0.11 0.17 0.23 0.31 0.40 0.47 0.55 0.62 0.71 0.74 0.70 0.68 0.67 0.67 0.67 0.62 0.51 0.45 0.42 0.37 0.29 0.22 0.18
0.03 0.02 0.02 0.02 0.01 0.01 0.01 0.01 0.01 0.01 0.01 0.02 0.02 0.03 0.03 0.03 0.03 0.04 0.04 0.05 0.08 0.10 0.13 0.18 0.24 0.34 0.44 0.55 0.63 0.67 0.69 0.67 0.61 0.56 0.53 0.52 0.52 0.47 0.41 0.36 0.34 0.26 0.16 0.09
0.01 0.01 0.01 0.01 0.00 0.00 0.00 0.01 0.01 0.01 0.02 0.02 0.03 0.03 0.03 0.03 0.04 0.05 0.06 0.08 0.09 0.11 0.12 0.15 0.20 0.26 0.38 0.59 0.72 0.72 0.66 0.59 0.55 0.52 0.49 0.46 0.42 0.39 0.36 0.35 0.31 0.23 0.14 0.08
0.01 0.01 0.01 0.00 0.00 0.01 0.01 0.01 0.02 0.02 0.03 0.03 0.04 0.04 0.04 0.05 0.05 0.06 0.07 0.08 0.10 0.12 0.14 0.17 0.20 0.23 0.31 0.52 0.74 0.78 0.72 0.61 0.52 0.45 0.44 0.44 0.40 0.36 0.33 0.31 0.28 0.23 0.14 0.07
0.01 0.00 0.01 0.01 0.02 0.03 0.03 0.04 0.04 0.04 0.04 0.04 0.05 0.05 0.05 0.05 0.06 0.06 0.07 0.09 0.12 0.13 0.15 0.18 0.21 0.24 0.31 0.46 0.64 0.73 0.72 0.63 0.56 0.46 0.40 0.40 0.39 0.34 0.29 0.27 0.24 0.20 0.14 0.06
0.02 0.03 0.04 0.05 0.05 0.04 0.05 0.06 0.08 0.08 0.09 0.09 0.08 0.08 0.07 0.08 0.08 0.09 0.09 0.11 0.14 0.14 0.14 0.17 0.21 0.26 0.36 0.49 0.62 0.66 0.67 0.62 0.55 0.45 0.38 0.35 0.34 0.33 0.26 0.22 0.18 0.16 0.11 0.06
0.06 0.08 0.09 0.08 0.08 0.08 0.10 0.12 0.14 0.15 0.16 0.15 0.14 0.14 0.15 0.16 0.17 0.16 0.16 0.17 0.17 0.16 0.16 0.17 0.19 0.23 0.32 0.47 0.60 0.63 0.65 0.62 0.53 0.43 0.36 0.33 0.30 0.28 0.24 0.19 0.15 0.12 0.09 0.05
0.08 0.10 0.11 0.12 0.15 0.18 0.20 0.21 0.22 0.22 0.21 0.21 0.21 0.21 0.22 0.23 0.24 0.24 0.23 0.24 0.24 0.22 0.22 0.24 0.24 0.22 0.25 0.37 0.57 0.64 0.62 0.60 0.53 0.43 0.34 0.31 0.28 0.23 0.20 0.16 0.12 0.09 0.07 0.04
0.15 0.19 0.23 0.26 0.28 0.29 0.30 0.29 0.27 0.25 0.24 0.25 0.28 0.30 0.30 0.29 0.30 0.30 0.31 0.30 0.28 0.29 0.30 0.29 0.25 0.23 0.25 0.35 0.52 0.58 0.60 0.58 0.52 0.43 0.34 0.27 0.23 0.20 0.16 0.12 0.09 0.06 0.04 0.03
0.30 0.34 0.38 0.42 0.42 0.40 0.38 0.36 0.34 0.32 0.29 0.31 0.37 0.39 0.37 0.35 0.34 0.36 0.38 0.33 0.28 0.32 0.32 0.28 0.25 0.26 0.30 0.37 0.48 0.53 0.55 0.53 0.50 0.42 0.33 0.24 0.19 0.17 0.14 0.09 0.06 0.04 0.03 0.02
0.31 0.33 0.34 0.35 0.34 0.30 0.27 0.25 0.24 0.25 0.27 0.31 0.34 0.37 0.39 0.37 0.36 0.35 0.34 0.34 0.32 0.31 0.29 0.27 0.28 0.31 0.36 0.38 0.41 0.47 0.49 0.46 0.44 0.39 0.30 0.21 0.18 0.16 0.12 0.07 0.04 0.03 0.02 0.02
0.22 0.22 0.21 0.19 0.18 0.17 0.14 0.14 0.16 0.21 0.25 0.30 0.36 0.42 0.47 0.46 0.43 0.40 0.36 0.30 0.31 0.27 0.25 0.25 0.27 0.30 0.31 0.30 0.33 0.40 0.42 0.41 0.39 0.35 0.27 0.19 0.13 0.11 0.09 0.05 0.03 0.03 0.02 0.02
0.10 0.09 0.09 0.08 0.09 0.10 0.11 0.11 0.13 0.18 0.22 0.27 0.32 0.38 0.50 0.58 0.54 0.41 0.38 0.32 0.26 0.22 0.19 0.19 0.20 0.22 0.23 0.21 0.23 0.30 0.36 0.37 0.36 0.32 0.25 0.17 0.10 0.09 0.06 0.04 0.03 0.02 0.02 0.02
0.03 0.04 0.05 0.07 0.10 0.12 0.14 0.15 0.17 0.20 0.26 0.34 0.34 0.34 0.44 0.60 0.66 0.51 0.38 0.29 0.25 0.20 0.18 0.18 0.17 0.18 0.16 0.13 0.16 0.22 0.28 0.32 0.33 0.30 0.22 0.15 0.10 0.07 0.05 0.04 0.02 0.02 0.02 0.02
0.05 0.07 0.10 0.12 0.16 0.21 0.24 0.28 0.32 0.36 0.49 0.63 0.60 0.49 0.51 0.57 0.58 0.51 0.40 0.28 0.24 0.23 0.19 0.19 0.19 0.16 0.13 0.12 0.14 0.20 0.23 0.25 0.28 0.25 0.18 0.13 0.09 0.06 0.05 0.04 0.03 0.02 0.02 0.02
0.09 0.12 0.17 0.18 0.19 0.25 0.33 0.39 0.48 0.57 0.73 0.98 1.02 0.79 0.65 0.61 0.54 0.47 0.41 0.34 0.29 0.28 0.24 0.20 0.20 0.18 0.15 0.14 0.15 0.17 0.18 0.18 0.19 0.18 0.14 0.10 0.07 0.05 0.04 0.04 0.03 0.03 0.02 0.02